QPF
0.22 0.23 0.24 0.25 0.25 0.28 0.27 0.24 0.21 0.16 0.12 0.10 0.08 0.05 0.02 0.01 0.00 0.00 0.00 0.00 0.00 0.00 0.00 0.00 0.00 0.00 0.00 0.00 0.01 0.01 0.02 0.03 0.04 0.05 0.07 0.09 0.11 0.16
0.30 0.29 0.27 0.26 0.25 0.24 0.20 0.17 0.14 0.12 0.09 0.06 0.03 0.01 0.01 0.00 0.00 0.00 0.00 0.00 0.00 0.00 0.00 0.00 0.00 0.00 0.00 0.00 0.00 0.00 0.00 0.01 0.01 0.01 0.02 0.03 0.05 0.10
0.36 0.31 0.26 0.22 0.19 0.15 0.12 0.10 0.07 0.05 0.03 0.03 0.01 0.00 0.00 0.00 0.00 0.00 0.00 0.00 0.00 0.00 0.00 0.00 0.00 0.00 0.00 0.00 0.00 0.00 0.00 0.00 0.01 0.01 0.01 0.01 0.02 0.06
0.38 0.28 0.19 0.13 0.09 0.07 0.05 0.03 0.03 0.02 0.01 0.00 0.00 0.00 0.00 0.00 0.00 0.00 0.00 0.00 0.00 0.00 0.00 0.00 0.00 0.00 0.00 0.00 0.00 0.00 0.00 0.00 0.00 0.01 0.02 0.02 0.02 0.04
0.27 0.19 0.10 0.04 0.03 0.02 0.01 0.01 0.01 0.00 0.00 0.00 0.00 0.00 0.00 0.00 0.00 0.00 0.00 0.00 0.00 0.00 0.01 0.01 0.00 0.00 0.00 0.00 0.00 0.00 0.00 0.00 0.01 0.01 0.03 0.04 0.05 0.06
0.13 0.07 0.02 0.01 0.01 0.00 0.00 0.00 0.00 0.00 0.00 0.00 0.00 0.00 0.00 0.00 0.00 0.00 0.00 0.00 0.00 0.00 0.01 0.01 0.01 0.01 0.01 0.01 0.01 0.01 0.00 0.00 0.01 0.01 0.02 0.04 0.06 0.08
0.04 0.01 0.00 0.00 0.00 0.00 0.00 0.00 0.00 0.00 0.00 0.00 0.00 0.00 0.00 0.00 0.00 0.00 0.00 0.00 0.00 0.00 0.00 0.00 0.01 0.01 0.01 0.01 0.01 0.01 0.01 0.01 0.01 0.02 0.03 0.05 0.10 0.14
0.00 0.00 0.00 0.00 0.00 0.00 0.00 0.00 0.00 0.00 0.00 0.00 0.00 0.00 0.00 0.00 0.00 0.00 0.00 0.00 0.00 0.00 0.00 0.00 0.00 0.00 0.00 0.00 0.01 0.02 0.02 0.02 0.02 0.02 0.04 0.07 0.13 0.22
0.00 0.00 0.00 0.00 0.00 0.00 0.00 0.00 0.00 0.00 0.00 0.00 0.00 0.00 0.00 0.00 0.00 0.00 0.00 0.00 0.00 0.00 0.00 0.00 0.00 0.00 0.00 0.00 0.01 0.01 0.02 0.03 0.03 0.04 0.05 0.07 0.15 0.31
0.00 0.00 0.00 0.00 0.00 0.00 0.00 0.00 0.00 0.00 0.00 0.00 0.00 0.00 0.00 0.00 0.00 0.00 0.00 0.00 0.00 0.00 0.00 0.00 0.00 0.00 0.00 0.00 0.00 0.01 0.02 0.03 0.05 0.10 0.11 0.10 0.15 0.31
0.00 0.00 0.00 0.00 0.00 0.00 0.00 0.00 0.00 0.00 0.00 0.00 0.00 0.00 0.00 0.00 0.00 0.00 0.00 0.00 0.00 0.00 0.00 0.00 0.00 0.00 0.00 0.00 0.00 0.01 0.01 0.03 0.06 0.12 0.16 0.19 0.24 0.29
0.00 0.00 0.00 0.00 0.00 0.00 0.00 0.00 0.00 0.00 0.00 0.00 0.00 0.00 0.00 0.00 0.00 0.00 0.00 0.00 0.00 0.00 0.00 0.00 0.00 0.00 0.00 0.00 0.00 0.00 0.01 0.04 0.08 0.13 0.21 0.27 0.34 0.37
0.00 0.00 0.00 0.00 0.00 0.00 0.00 0.00 0.00 0.00 0.00 0.00 0.00 0.00 0.00 0.00 0.00 0.00 0.00 0.00 0.00 0.00 0.00 0.00 0.00 0.00 0.00 0.00 0.01 0.01 0.01 0.03 0.06 0.10 0.17 0.27 0.38 0.49
0.00 0.00 0.00 0.00 0.00 0.00 0.00 0.00 0.00 0.00 0.00 0.00 0.00 0.00 0.00 0.00 0.00 0.00 0.00 0.00 0.00 0.00 0.00 0.00 0.00 0.00 0.00 0.00 0.01 0.01 0.01 0.03 0.05 0.08 0.15 0.24 0.33 0.43
0.00 0.00 0.00 0.00 0.00 0.00 0.00 0.00 0.00 0.00 0.00 0.00 0.00 0.00 0.00 0.00 0.00 0.00 0.00 0.00 0.00 0.00 0.00 0.00 0.00 0.00 0.00 0.00 0.00 0.01 0.01 0.04 0.08 0.12 0.16 0.23 0.29 0.36
0.00 0.00 0.00 0.00 0.00 0.00 0.00 0.00 0.00 0.00 0.00 0.00 0.00 0.00 0.00 0.00 0.00 0.00 0.00 0.00 0.00 0.00 0.00 0.00 0.00 0.00 0.00 0.00 0.00 0.00 0.00 0.02 0.06 0.14 0.21 0.28 0.33 0.34
0.00 0.00 0.00 0.00 0.00 0.00 0.00 0.00 0.00 0.00 0.00 0.00 0.00 0.00 0.00 0.00 0.00 0.00 0.00 0.00 0.00 0.00 0.00 0.00 0.00 0.00 0.00 0.00 0.00 0.00 0.00 0.01 0.02 0.06 0.14 0.24 0.37 0.40
0.00 0.00 0.00 0.00 0.00 0.00 0.00 0.00 0.00 0.00 0.00 0.00 0.00 0.00 0.00 0.00 0.00 0.00 0.00 0.00 0.00 0.00 0.00 0.00 0.00 0.00 0.00 0.00 0.00 0.00 0.00 0.00 0.01 0.03 0.05 0.09 0.16 0.27
0.00 0.00 0.00 0.00 0.00 0.00 0.00 0.00 0.00 0.00 0.00 0.00 0.00 0.00 0.00 0.00 0.00 0.00 0.00 0.00 0.00 0.00 0.00 0.00 0.00 0.00 0.00 0.00 0.00 0.00 0.00 0.00 0.00 0.00 0.01 0.02 0.06 0.12
0.00 0.00 0.00 0.00 0.00 0.00 0.00 0.00 0.00 0.00 0.00 0.00 0.00 0.00 0.00 0.00 0.00 0.00 0.00 0.00 0.00 0.00 0.00 0.00 0.00 0.00 0.00 0.00 0.00 0.00 0.00 0.00 0.00 0.00 0.00 0.00 0.02 0.06
0.00 0.00 0.00 0.00 0.00 0.00 0.00 0.00 0.00 0.00 0.00 0.00 0.00 0.00 0.00 0.00 0.00 0.00 0.00 0.00 0.00 0.00 0.00 0.00 0.00 0.00 0.00 0.00 0.00 0.00 0.00 0.00 0.00 0.00 0.00 0.00 0.00 0.01
0.00 0.00 0.00 0.00 0.00 0.00 0.00 0.00 0.00 0.00 0.00 0.00 0.00 0.00 0.00 0.00 0.00 0.00 0.00 0.00 0.00 0.00 0.00 0.00 0.00 0.00 0.00 0.00 0.00 0.00 0.00 0.00 0.00 0.00 0.00 0.00 0.00 0.00
0.00 0.00 0.00 0.00 0.00 0.00 0.00 0.00 0.00 0.00 0.00 0.00 0.00 0.00 0.00 0.00 0.00 0.00 0.00 0.00 0.00 0.00 0.00 0.00 0.00 0.00 0.00 0.00 0.00 0.00 0.00 0.00 0.00 0.00 0.00 0.00 0.00 0.00
MSLP
1005.62 1006.01 1006.37 1006.70 1006.98 1007.21 1007.39 1007.55 1007.67 1007.78 1007.86 1007.91 1007.93 1007.89 1007.81 1007.67 1007.49 1007.30 1007.11 1006.95 1006.86 1006.84 1006.89 1007.03 1007.22 1007.44 1007.68 1007.91 1008.11 1008.27 1008.41 1008.51 1008.60 1008.68 1008.78 1008.90 1009.05 1009.25
1005.57 1005.92 1006.24 1006.52 1006.76 1006.97 1007.18 1007.37 1007.58 1007.78 1007.97 1008.14 1008.25 1008.29 1008.24 1008.12 1007.92 1007.69 1007.44 1007.22 1007.07 1007.00 1007.02 1007.13 1007.31 1007.52 1007.76 1007.98 1008.16 1008.29 1008.38 1008.42 1008.44 1008.43 1008.43 1008.45 1008.50 1008.60
1005.75 1006.06 1006.32 1006.54 1006.73 1006.91 1007.10 1007.31 1007.57 1007.85 1008.13 1008.40 1008.60 1008.72 1008.74 1008.65 1008.46 1008.20 1007.92 1007.66 1007.45 1007.34 1007.31 1007.39 1007.54 1007.73 1007.94 1008.14 1008.29 1008.38 1008.41 1008.39 1008.32 1008.22 1008.11 1008.02 1007.96 1007.95
1006.15 1006.42 1006.62 1006.77 1006.90 1007.02 1007.18 1007.40 1007.68 1008.01 1008.37 1008.71 1009.00 1009.20 1009.28 1009.23 1009.07 1008.82 1008.52 1008.23 1007.98 1007.81 1007.74 1007.77 1007.87 1008.02 1008.18 1008.33 1008.42 1008.46 1008.42 1008.32 1008.16 1007.96 1007.75 1007.54 1007.37 1007.25
1006.74 1006.96 1007.11 1007.20 1007.26 1007.33 1007.45 1007.64 1007.92 1008.27 1008.67 1009.08 1009.43 1009.69 1009.83 1009.83 1009.70 1009.47 1009.17 1008.86 1008.58 1008.37 1008.25 1008.21 1008.25 1008.33 1008.42 1008.50 1008.52 1008.47 1008.35 1008.16 1007.90 1007.60 1007.28 1006.97 1006.68 1006.45
1007.44 1007.63 1007.73 1007.77 1007.77 1007.79 1007.87 1008.03 1008.28 1008.63 1009.04 1009.46 1009.85 1010.16 1010.34 1010.39 1010.30 1010.09 1009.81 1009.49 1009.19 1008.95 1008.77 1008.66 1008.62 1008.62 1008.63 1008.61 1008.54 1008.40 1008.18 1007.89 1007.53 1007.13 1006.71 1006.28 1005.90 1005.57
1008.19 1008.34 1008.41 1008.42 1008.39 1008.36 1008.40 1008.51 1008.73 1009.05 1009.43 1009.85 1010.24 1010.56 1010.77 1010.85 1010.79 1010.61 1010.35 1010.05 1009.74 1009.46 1009.24 1009.07 1008.95 1008.86 1008.77 1008.66 1008.48 1008.24 1007.93 1007.53 1007.08 1006.58 1006.06 1005.54 1005.07 1004.66
1008.90 1009.04 1009.10 1009.09 1009.04 1008.99 1008.99 1009.06 1009.23 1009.49 1009.83 1010.20 1010.56 1010.87 1011.08 1011.17 1011.14 1010.99 1010.76 1010.47 1010.17 1009.88 1009.62 1009.41 1009.22 1009.05 1008.88 1008.67 1008.40 1008.07 1007.65 1007.17 1006.62 1006.04 1005.43 1004.83 1004.28 1003.81
1009.52 1009.66 1009.72 1009.72 1009.68 1009.62 1009.60 1009.63 1009.75 1009.95 1010.21 1010.52 1010.83 1011.09 1011.28 1011.37 1011.35 1011.22 1011.02 1010.76 1010.47 1010.19 1009.92 1009.68 1009.45 1009.23 1008.98 1008.70 1008.35 1007.94 1007.45 1006.89 1006.26 1005.60 1004.93 1004.27 1003.66 1003.14
1010.02 1010.17 1010.26 1010.29 1010.27 1010.23 1010.20 1010.21 1010.28 1010.41 1010.60 1010.82 1011.06 1011.26 1011.41 1011.48 1011.46 1011.36 1011.18 1010.95 1010.70 1010.43 1010.18 1009.93 1009.68 1009.42 1009.14 1008.80 1008.41 1007.94 1007.39 1006.77 1006.10 1005.39 1004.66 1003.96 1003.32 1002.77
1010.39 1010.58 1010.71 1010.79 1010.81 1010.80 1010.78 1010.78 1010.81 1010.88 1011.00 1011.15 1011.30 1011.44 1011.54 1011.58 1011.55 1011.46 1011.31 1011.12 1010.90 1010.67 1010.43 1010.20 1009.95 1009.69 1009.39 1009.04 1008.62 1008.12 1007.54 1006.89 1006.19 1005.45 1004.70 1003.97 1003.31 1002.75
1010.66 1010.89 1011.08 1011.22 1011.30 1011.34 1011.35 1011.35 1011.36 1011.39 1011.45 1011.52 1011.61 1011.68 1011.73 1011.74 1011.71 1011.62 1011.49 1011.33 1011.14 1010.95 1010.75 1010.53 1010.31 1010.06 1009.76 1009.41 1008.99 1008.48 1007.90 1007.25 1006.54 1005.79 1005.03 1004.31 1003.65 1003.09
1010.87 1011.15 1011.39 1011.59 1011.74 1011.83 1011.88 1011.90 1011.91 1011.92 1011.94 1011.97 1012.00 1012.03 1012.04 1012.02 1011.97 1011.89 1011.78 1011.64 1011.48 1011.31 1011.14 1010.95 1010.75 1010.52 1010.24 1009.90 1009.49 1009.00 1008.43 1007.79 1007.09 1006.36 1005.63 1004.92 1004.28 1003.75
1011.03 1011.36 1011.66 1011.92 1012.13 1012.28 1012.37 1012.43 1012.45 1012.47 1012.47 1012.48 1012.48 1012.48 1012.46 1012.43 1012.37 1012.29 1012.18 1012.06 1011.92 1011.77 1011.61 1011.45 1011.26 1011.04 1010.78 1010.46 1010.07 1009.60 1009.06 1008.45 1007.79 1007.09 1006.39 1005.72 1005.12 1004.62
1011.18 1011.54 1011.89 1012.20 1012.46 1012.65 1012.80 1012.89 1012.95 1012.99 1013.00 1013.01 1013.01 1013.00 1012.98 1012.94 1012.88 1012.80 1012.69 1012.57 1012.44 1012.30 1012.14 1011.98 1011.79 1011.58 1011.33 1011.02 1010.66 1010.22 1009.71 1009.14 1008.52 1007.87 1007.22 1006.61 1006.06 1005.60
1011.30 1011.69 1012.06 1012.40 1012.69 1012.93 1013.12 1013.26 1013.36 1013.43 1013.48 1013.51 1013.53 1013.53 1013.52 1013.49 1013.44 1013.36 1013.26 1013.13 1013.00 1012.85 1012.68 1012.51 1012.32 1012.10 1011.85 1011.55 1011.20 1010.78 1010.31 1009.78 1009.21 1008.63 1008.04 1007.49 1007.00 1006.59
1011.36 1011.75 1012.13 1012.49 1012.80 1013.07 1013.30 1013.48 1013.63 1013.75 1013.84 1013.92 1013.98 1014.01 1014.03 1014.02 1013.98 1013.91 1013.81 1013.69 1013.54 1013.37 1013.20 1013.00 1012.80 1012.57 1012.31 1012.01 1011.67 1011.27 1010.83 1010.35 1009.84 1009.31 1008.79 1008.30 1007.87 1007.52
1011.33 1011.72 1012.09 1012.44 1012.76 1013.05 1013.31 1013.54 1013.73 1013.91 1014.06 1014.19 1014.30 1014.38 1014.43 1014.45 1014.44 1014.39 1014.30 1014.17 1014.02 1013.85 1013.66 1013.45 1013.22 1012.97 1012.71 1012.41 1012.07 1011.70 1011.29 1010.85 1010.39 1009.92 1009.46 1009.04 1008.66 1008.35
1011.18 1011.54 1011.90 1012.24 1012.56 1012.87 1013.15 1013.42 1013.66 1013.89 1014.10 1014.29 1014.46 1014.59 1014.70 1014.76 1014.78 1014.75 1014.68 1014.57 1014.42 1014.25 1014.05 1013.83 1013.60 1013.35 1013.07 1012.78 1012.45 1012.10 1011.72 1011.32 1010.91 1010.49 1010.09 1009.71 1009.38 1009.10
1010.89 1011.23 1011.56 1011.89 1012.21 1012.53 1012.84 1013.14 1013.44 1013.72 1013.99 1014.24 1014.46 1014.65 1014.80 1014.91 1014.97 1014.98 1014.94 1014.86 1014.73 1014.57 1014.39 1014.18 1013.95 1013.70 1013.44 1013.15 1012.84 1012.51 1012.16 1011.80 1011.43 1011.06 1010.70 1010.36 1010.06 1009.80
1010.47 1010.78 1011.10 1011.41 1011.74 1012.07 1012.40 1012.74 1013.08 1013.41 1013.73 1014.04 1014.32 1014.56 1014.77 1014.92 1015.03 1015.08 1015.09 1015.04 1014.95 1014.83 1014.67 1014.49 1014.28 1014.06 1013.81 1013.55 1013.26 1012.96 1012.64 1012.31 1011.98 1011.65 1011.32 1011.02 1010.73 1010.48
1009.94 1010.23 1010.53 1010.84 1011.17 1011.51 1011.87 1012.25 1012.62 1013.00 1013.37 1013.72 1014.05 1014.34 1014.59 1014.79 1014.95 1015.05 1015.11 1015.11 1015.08 1015.00 1014.89 1014.75 1014.59 1014.40 1014.19 1013.96 1013.71 1013.44 1013.15 1012.86 1012.56 1012.26 1011.96 1011.68 1011.40 1011.15
1009.34 1009.62 1009.90 1010.21 1010.55 1010.91 1011.29 1011.69 1012.10 1012.51 1012.92 1013.30 1013.67 1014.00 1014.29 1014.54 1014.74 1014.90 1015.01 1015.07 1015.09 1015.08 1015.03 1014.95 1014.84 1014.70 1014.54 1014.35 1014.14 1013.90 1013.66 1013.40 1013.13 1012.86 1012.59 1012.32 1012.06 1011.80
Thickness
5683 5682 5681 5681 5682 5684 5684 5684 5681 5676 5675 5679 5683 5688 5693 5697 5701 5704 5707 5710 5712 5712 5713 5715 5715 5715 5715 5714 5713 5712 5712 5711 5711 5711 5710 5710 5710 5710
5674 5673 5672 5673 5674 5676 5678 5678 5677 5673 5669 5670 5673 5678 5683 5688 5691 5695 5698 5700 5702 5703 5705 5706 5706 5706 5705 5704 5704 5703 5703 5703 5703 5704 5703 5703 5704 5705
5666 5665 5664 5666 5667 5668 5671 5672 5671 5670 5664 5662 5665 5669 5673 5676 5680 5684 5687 5690 5691 5693 5695 5696 5696 5696 5695 5695 5694 5694 5693 5694 5695 5695 5695 5696 5697 5698
5656 5655 5656 5659 5660 5662 5664 5665 5664 5664 5660 5654 5655 5659 5663 5667 5670 5673 5676 5679 5680 5682 5683 5684 5684 5684 5684 5683 5683 5683 5683 5684 5686 5687 5688 5689 5690 5692
5647 5645 5646 5650 5651 5654 5657 5657 5656 5655 5653 5650 5648 5651 5655 5659 5661 5663 5665 5666 5668 5669 5670 5670 5671 5671 5671 5671 5671 5672 5673 5674 5676 5678 5681 5682 5684 5686
5635 5636 5639 5642 5644 5646 5648 5647 5647 5645 5644 5642 5640 5641 5644 5648 5650 5650 5651 5652 5653 5655 5655 5656 5657 5657 5658 5658 5659 5660 5662 5664 5667 5669 5673 5676 5678 5680
5625 5627 5630 5634 5636 5637 5638 5638 5639 5637 5635 5633 5631 5631 5632 5634 5634 5637 5638 5639 5640 5641 5641 5642 5643 5644 5644 5645 5646 5648 5651 5654 5657 5661 5664 5668 5672 5675
5615 5617 5620 5623 5625 5627 5629 5630 5631 5629 5626 5624 5621 5621 5621 5622 5624 5626 5625 5625 5625 5628 5629 5630 5631 5631 5632 5633 5634 5636 5639 5642 5645 5650 5655 5660 5664 5668
5607 5609 5612 5614 5616 5618 5620 5622 5622 5622 5622 5619 5615 5614 5614 5614 5615 5616 5615 5614 5613 5615 5617 5617 5619 5619 5620 5620 5621 5623 5626 5629 5633 5638 5644 5649 5655 5660
5599 5601 5602 5604 5608 5610 5612 5612 5612 5613 5613 5612 5610 5608 5609 5608 5608 5607 5607 5606 5605 5605 5604 5602 5605 5606 5608 5608 5609 5610 5613 5616 5620 5625 5630 5636 5644 5652
5593 5595 5597 5598 5601 5605 5605 5604 5604 5604 5607 5607 5606 5604 5604 5604 5602 5600 5597 5594 5589 5589 5589 5587 5588 5589 5593 5594 5596 5597 5600 5603 5607 5611 5617 5623 5631 5639
5586 5588 5591 5593 5596 5598 5597 5597 5595 5594 5597 5598 5597 5596 5595 5594 5592 5589 5585 5580 5575 5572 5573 5572 5572 5572 5574 5578 5580 5583 5586 5590 5594 5599 5604 5610 5617 5624
5583 5583 5585 5588 5590 5591 5591 5591 5590 5589 5589 5589 5587 5586 5584 5583 5581 5579 5576 5571 5565 5560 5560 5560 5558 5557 5556 5559 5564 5568 5572 5576 5582 5587 5592 5598 5603 5609
5581 5581 5581 5584 5584 5585 5585 5585 5585 5585 5582 5580 5577 5574 5572 5570 5569 5568 5566 5563 5559 5554 5552 5551 5548 5546 5544 5545 5547 5553 5559 5563 5568 5574 5580 5586 5590 5595
5581 5580 5580 5580 5579 5579 5580 5580 5578 5576 5574 5570 5567 5564 5563 5561 5560 5559 5556 5554 5551 5548 5545 5543 5541 5539 5537 5534 5534 5537 5543 5549 5555 5561 5568 5574 5579 5583
5577 5577 5577 5576 5575 5574 5573 5572 5571 5569 5566 5563 5560 5558 5557 5554 5551 5548 5544 5542 5539 5536 5537 5536 5534 5532 5529 5526 5524 5525 5528 5533 5540 5548 5555 5561 5567 5572
5573 5571 5570 5568 5567 5565 5565 5564 5563 5563 5561 5558 5555 5552 5549 5546 5543 5540 5536 5533 5527 5523 5522 5525 5526 5525 5522 5519 5517 5517 5518 5522 5528 5535 5543 5549 5554 5557
5573 5569 5567 5565 5563 5561 5560 5559 5558 5557 5556 5553 5549 5546 5542 5539 5536 5533 5529 5525 5520 5516 5513 5511 5512 5514 5514 5513 5511 5509 5510 5513 5517 5523 5529 5535 5540 5543
5570 5567 5566 5565 5562 5560 5558 5557 5555 5553 5552 5549 5545 5541 5538 5534 5531 5527 5523 5519 5514 5510 5507 5504 5502 5499 5496 5497 5502 5504 5502 5503 5507 5511 5515 5520 5524 5528
5569 5567 5566 5565 5562 5560 5557 5555 5553 5550 5547 5544 5541 5537 5534 5531 5527 5523 5519 5515 5510 5506 5502 5499 5495 5492 5490 5488 5490 5493 5496 5495 5497 5499 5503 5507 5511 5514
5567 5566 5565 5564 5561 5560 5558 5555 5552 5549 5545 5541 5537 5534 5532 5528 5524 5520 5516 5513 5507 5501 5496 5492 5490 5490 5488 5487 5484 5483 5487 5490 5490 5490 5492 5495 5498 5502
5567 5565 5564 5563 5560 5558 5556 5553 5550 5547 5543 5539 5535 5532 5530 5527 5523 5519 5514 5509 5504 5499 5494 5490 5489 5486 5482 5477 5474 5474 5476 5480 5484 5485 5485 5485 5484 5487
5568 5566 5564 5561 5558 5556 5554 5552 5549 5545 5542 5538 5534 5531 5528 5525 5521 5518 5513 5508 5502 5498 5493 5487 5483 5480 5475 5472 5469 5468 5470 5470 5470 5472 5474 5477 5477 5478